This is the latest recevied weather packets stored in our database for station/object E25XKG-15. If no packets are shown the sender has not sent any weather packets the latest 10 day(s).
| Time | Temp. | Humidity | Pressure | Rain* | Wind** | Luminosity | Snow |
|---|---|---|---|---|---|---|---|
| 1777583683 | 32.78° C | 51% | 1003.9 hPa | - | - | - | - |
| 1777583382 | 32.78° C | 49% | 1003.8 hPa | - | - | - | - |
| 1777583081 | 32.78° C | 51% | 1003.9 hPa | - | - | - | - |
| 1777582780 | 32.78° C | 49% | 1003.8 hPa | - | - | - | - |
| 1777582479 | 32.78° C | 50% | 1003.8 hPa | - | - | - | - |
| 1777582178 | 32.78° C | 49% | 1003.7 hPa | - | - | - | - |
| 1777581877 | 32.78° C | 50% | 1003.5 hPa | - | - | - | - |
| 1777581576 | 32.78° C | 51% | 1003.7 hPa | - | - | - | - |
| 1777581275 | 32.78° C | 51% | 1003.8 hPa | - | - | - | - |
| 1777580974 | 32.78° C | 48% | 1003.8 hPa | - | - | - | - |
| 1777580673 | 32.78° C | 50% | 1003.8 hPa | - | - | - | - |
| 1777580372 | 32.78° C | 49% | 1004 hPa | - | - | - | - |
| 1777580071 | 32.78° C | 49% | 1004.1 hPa | - | - | - | - |
| 1777579770 | 32.78° C | 50% | 1004.1 hPa | - | - | - | - |
| 1777579469 | 32.78° C | 49% | 1003.9 hPa | - | - | - | - |
| 1777579168 | 32.78° C | 49% | 1004.2 hPa | - | - | - | - |
| 1777578867 | 32.78° C | 50% | 1004.1 hPa | - | - | - | - |
| 1777578566 | 33.33° C | 49% | 1004.2 hPa | - | - | - | - |
| 1777578265 | 32.78° C | 49% | 1004.1 hPa | - | - | - | - |
| 1777577964 | 33.33° C | 48% | 1004.5 hPa | - | - | - | - |
| 1777577663 | 33.33° C | 50% | 1004.6 hPa | - | - | - | - |
| 1777577362 | 33.33° C | 50% | 1004.6 hPa | - | - | - | - |
| 1777577061 | 33.33° C | 51% | 1004.7 hPa | - | - | - | - |
| 1777576760 | 33.33° C | 49% | 1004.6 hPa | - | - | - | - |
| 1777576459 | 33.33° C | 50% | 1004.6 hPa | - | - | - | - |
* Rain since midnight (hover to see other rain measurements)
** Current wind speed in m/s (hover to see current wind gust speed)